When you browse on this site, cookies collect data to enhance your experience and personalize the content and advertising you see.
Visit our Privacy Policy to learn more. By continuing to use the site, you agree to this use of cookies and data.
  • In Schweiz
  • Länderverzeichnis
  • Für 7 Tage
  • Wassertemperatur
  • Satellitenkarten
  • Wetterkarte
  • Widgets
  • user-avatar
    Anmelden

    Stündliche Wetter Tovstodubove

    Heute, 19 Februar, Dienstag

    Zeit Temperatur Niederschläge Wind Luftdruck Luftfeuchtigkeit
    00:00 -4°C° 0 mm 1 m/S 749 mmHg 92%
    01:00 -6°C° 0 mm 1 m/S 750 mmHg 92%
    02:00 -9°C° 0 mm 0 m/S 749 mmHg 92%
    03:00 -9°C° 0 mm 1 m/S 749 mmHg 91%
    04:00 -9°C° 0 mm 1 m/S 749 mmHg 91%
    05:00 -9°C° 0 mm 1 m/S 749 mmHg 90%
    06:00 -9°C° 0 mm 1 m/S 749 mmHg 90%
    07:00 -10°C° 0 mm 2 m/S 750 mmHg 91%
    08:00 -9°C° 0 mm 2 m/S 750 mmHg 92%
    09:00 -8°C° 0 mm 2 m/S 749 mmHg 91%
    10:00 -7°C° 0 mm 3 m/S 749 mmHg 91%
    11:00 -6°C° 0 mm 3 m/S 749 mmHg 91%
    12:00 -5°C° 0 mm 3 m/S 749 mmHg 91%
    13:00 -4°C° 0 mm 4 m/S 748 mmHg 90%
    14:00 -4°C° 0 mm 4 m/S 748 mmHg 89%
    15:00 -4°C° 0 mm 4 m/S 748 mmHg 90%
    16:00 -5°C° 0 mm 4 m/S 747 mmHg 91%
    17:00 -7°C° 0 mm 4 m/S 747 mmHg 92%
    18:00 -7°C° 0 mm 4 m/S 746 mmHg 91%
    19:00 -8°C° 0 mm 5 m/S 746 mmHg 90%
    20:00 -8°C° 0 mm 5 m/S 745 mmHg 90%
    21:00 -9°C° 0 mm 6 m/S 745 mmHg 88%
    22:00 -9°C° 0 mm 6 m/S 744 mmHg 87%
    23:00 -9°C° 0 mm 6 m/S 744 mmHg 86%

    Morgen, 20 Februar, Mittwoch

    Zeit Temperatur Niederschläge Wind Luftdruck Luftfeuchtigkeit
    00:00 -8°C° 0 mm 6 m/S 743 mmHg 86%
    01:00 -8°C° 0 mm 6 m/S 742 mmHg 85%
    02:00 -8°C° 0 mm 6 m/S 742 mmHg 85%
    03:00 -8°C° 0 mm 6 m/S 741 mmHg 86%
    04:00 -8°C° 0 mm 6 m/S 740 mmHg 88%
    05:00 -8°C° 0 mm 6 m/S 740 mmHg 90%
    06:00 -6°C° 0 mm 6 m/S 739 mmHg 92%
    07:00 -6°C° 0 mm 7 m/S 739 mmHg 94%
    08:00 -4°C° 0 mm 7 m/S 739 mmHg 96%
    09:00 -4°C° 0 mm 6 m/S 739 mmHg 96%
    10:00 -3°C° 0 mm 6 m/S 739 mmHg 97%
    11:00 -3°C° 0 mm 6 m/S 739 mmHg 98%
    12:00 -2°C° 0.3 mm 5 m/S 738 mmHg 98%
    13:00 -1°C° 0.3 mm 5 m/S 738 mmHg 99%
    14:00 -1°C° 0.3 mm 5 m/S 738 mmHg 99%
    15:00 -1°C° 0.1 mm 4 m/S 738 mmHg 99%
    16:00 -1°C° 0.1 mm 4 m/S 738 mmHg 98%
    17:00 -1°C° 0.1 mm 4 m/S 738 mmHg 97%
    18:00 -1°C° 0 mm 4 m/S 738 mmHg 97%
    19:00 -1°C° 0 mm 4 m/S 738 mmHg 97%
    20:00 -1°C° 0 mm 4 m/S 738 mmHg 97%
    21:00 -1°C° 0 mm 5 m/S 738 mmHg 95%
    22:00 -1°C° 0 mm 5 m/S 737 mmHg 94%
    23:00 -1°C° 0 mm 5 m/S 737 mmHg 92%

    übermorgen, 21 Februar, Donnerstag

    Zeit Temperatur Niederschläge Wind Luftdruck Luftfeuchtigkeit
    00:00 -2°C° 0.1 mm 6 m/S 736 mmHg 92%
    01:00 -2°C° 0.1 mm 7 m/S 736 mmHg 92%
    02:00 -2°C° 0.1 mm 7 m/S 736 mmHg 92%
    03:00 -3°C° 0.2 mm 7 m/S 736 mmHg 89%
    04:00 -4°C° 0.2 mm 7 m/S 736 mmHg 87%
    05:00 -5°C° 0.2 mm 6 m/S 736 mmHg 84%
    06:00 -6°C° 0 mm 6 m/S 736 mmHg 85%
    07:00 -6°C° 0 mm 6 m/S 736 mmHg 85%
    08:00 -8°C° 0 mm 6 m/S 737 mmHg 86%
    09:00 -8°C° 0 mm 6 m/S 737 mmHg 85%
    10:00 -8°C° 0 mm 7 m/S 737 mmHg 84%
    11:00 -7°C° 0 mm 7 m/S 737 mmHg 82%
    12:00 -7°C° 0.1 mm 8 m/S 737 mmHg 82%
    13:00 -7°C° 0.1 mm 8 m/S 737 mmHg 82%
    14:00 -7°C° 0.1 mm 8 m/S 738 mmHg 82%
    15:00 -8°C° 0 mm 7 m/S 738 mmHg 82%
    16:00 -9°C° 0 mm 6 m/S 738 mmHg 82%
    17:00 -9°C° 0 mm 6 m/S 738 mmHg 82%
    18:00 -9°C° 0 mm 6 m/S 739 mmHg 83%
    19:00 -9°C° 0 mm 6 m/S 739 mmHg 84%
    20:00 -9°C° 0 mm 6 m/S 740 mmHg 86%
    21:00 -10°C° 0 mm 6 m/S 740 mmHg 86%
    22:00 -11°C° 0 mm 6 m/S 740 mmHg 87%
    23:00 -11°C° 0 mm 5 m/S 740 mmHg 88%

    22 Februar, Freitag

    Zeit Temperatur Niederschläge Wind Luftdruck Luftfeuchtigkeit
    00:00 -11°C° 0 mm 5 m/S 741 mmHg 89%
    01:00 -11°C° 0 mm 5 m/S 741 mmHg 89%
    02:00 -11°C° 0 mm 5 m/S 741 mmHg 90%
    03:00 -12°C° 0 mm 5 m/S 741 mmHg 89%
    04:00 -12°C° 0 mm 5 m/S 742 mmHg 88%
    05:00 -13°C° 0 mm 5 m/S 742 mmHg 87%
    06:00 -13°C° 0 mm 5 m/S 743 mmHg 86%
    07:00 -14°C° 0 mm 5 m/S 743 mmHg 85%
    08:00 -14°C° 0 mm 5 m/S 744 mmHg 84%
    09:00 -14°C° 0 mm 5 m/S 744 mmHg 81%
    10:00 -15°C° 0 mm 6 m/S 745 mmHg 79%
    11:00 -14°C° 0 mm 6 m/S 745 mmHg 77%
    12:00 -14°C° 0 mm 6 m/S 746 mmHg 77%
    13:00 -14°C° 0 mm 6 m/S 746 mmHg 77%
    14:00 -14°C° 0 mm 7 m/S 746 mmHg 77%
    15:00 -14°C° 0 mm 6 m/S 746 mmHg 78%
    16:00 -14°C° 0 mm 5 m/S 747 mmHg 80%
    17:00 -14°C° 0 mm 4 m/S 747 mmHg 82%
    18:00 -14°C° 0 mm 3 m/S 747 mmHg 83%
    19:00 -14°C° 0 mm 3 m/S 747 mmHg 84%
    20:00 -15°C° 0 mm 3 m/S 748 mmHg 85%
    21:00 -15°C° 0 mm 3 m/S 748 mmHg 86%
    22:00 -15°C° 0 mm 3 m/S 748 mmHg 86%
    23:00 -16°C° 0 mm 4 m/S 748 mmHg 87%

    23 Februar, Samstag

    Zeit Temperatur Niederschläge Wind Luftdruck Luftfeuchtigkeit
    00:00 -16°C° 0 mm 4 m/S 749 mmHg 87%
    01:00 -17°C° 0 mm 4 m/S 749 mmHg 88%
    02:00 -17°C° 0 mm 4 m/S 749 mmHg 88%
    03:00 -17°C° 0 mm 4 m/S 749 mmHg 89%
    04:00 -17°C° 0 mm 4 m/S 749 mmHg 90%
    05:00 -16°C° 0 mm 3 m/S 750 mmHg 91%
    06:00 -17°C° 0 mm 4 m/S 750 mmHg 90%
    07:00 -16°C° 0 mm 4 m/S 751 mmHg 90%
    08:00 -15°C° 0 mm 4 m/S 751 mmHg 89%
    09:00 -15°C° 0 mm 4 m/S 751 mmHg 87%
    10:00 -14°C° 0 mm 4 m/S 751 mmHg 84%
    11:00 -14°C° 0 mm 4 m/S 752 mmHg 82%
    12:00 -12°C° 0 mm 4 m/S 752 mmHg 82%
    13:00 -12°C° 0 mm 4 m/S 752 mmHg 82%
    14:00 -11°C° 0 mm 4 m/S 752 mmHg 83%
    15:00 -12°C° 0 mm 4 m/S 752 mmHg 85%
    16:00 -12°C° 0 mm 3 m/S 752 mmHg 87%
    17:00 -12°C° 0 mm 3 m/S 752 mmHg 89%
    18:00 -13°C° 0 mm 3 m/S 753 mmHg 90%
    19:00 -13°C° 0 mm 2 m/S 753 mmHg 91%
    20:00 -14°C° 0 mm 2 m/S 753 mmHg 93%
    21:00 -14°C° 0 mm 2 m/S 753 mmHg 93%
    22:00 -14°C° 0 mm 2 m/S 754 mmHg 94%
    23:00 -14°C° 0 mm 2 m/S 754 mmHg 94%

    24 Februar, Sonntag

    Zeit Temperatur Niederschläge Wind Luftdruck Luftfeuchtigkeit
    00:00 -14°C° 0 mm 2 m/S 754 mmHg 95%
    01:00 -14°C° 0 mm 2 m/S 754 mmHg 95%
    02:00 -14°C° 0 mm 2 m/S 754 mmHg 95%
    03:00 -15°C° 0 mm 2 m/S 754 mmHg 95%
    04:00 -16°C° 0 mm 3 m/S 754 mmHg 95%
    05:00 -16°C° 0 mm 3 m/S 754 mmHg 95%
    06:00 -16°C° 0 mm 3 m/S 755 mmHg 95%
    07:00 -16°C° 0 mm 3 m/S 755 mmHg 94%
    08:00 -16°C° 0 mm 3 m/S 755 mmHg 94%
    09:00 -15°C° 0 mm 3 m/S 755 mmHg 92%
    10:00 -15°C° 0 mm 3 m/S 756 mmHg 90%
    11:00 -15°C° 0 mm 4 m/S 756 mmHg 88%
    12:00 -13°C° 0 mm 3 m/S 756 mmHg 87%
    13:00 -13°C° 0 mm 3 m/S 756 mmHg 86%
    14:00 -12°C° 0 mm 3 m/S 756 mmHg 85%
    15:00 -13°C° 0 mm 3 m/S 756 mmHg 86%
    16:00 -14°C° 0 mm 3 m/S 756 mmHg 88%
    17:00 -14°C° 0 mm 2 m/S 756 mmHg 89%
    18:00 -14°C° 0 mm 2 m/S 756 mmHg 88%
    19:00 -15°C° 0 mm 2 m/S 756 mmHg 88%
    20:00 -16°C° 0 mm 2 m/S 756 mmHg 87%
    21:00 -16°C° 0 mm 2 m/S 756 mmHg 87%
    22:00 -14°C° 0 mm 1 m/S 756 mmHg 86%
    23:00 -15°C° 0 mm 1 m/S 756 mmHg 86%
    Mehr zeigen